SCP
0 0 0 0 0 0 0 0 0 0 0 0 0 0 0 0 0 0 0 0 0 0 0 0 0 0 0 0 0 0 0 0 0 0 0 0 0 0
0 0 0 0 0 0 0 0 0 0 0 0 0 0 0 0 0 0 0 0 0 0 0 0 0 0 0 0 0 0 0 0 0 0 0 0 0 0
0 0 0 0 0 0 0 0 0 0 0 0 0 0 0 0 0 0 0 0 0 0 0 0 0 0 0 0 0 0 0 0 0 0 0 0 0 0
0 0 0 0 0 0 0 0 0 0 0 0 0 0 0 0 0 0 0 0 0 0 0 0 0 0 0 0 0 0 0 0 0 0 0 0 0 0
0 0 0 0 0 0 0 0 0 0 0 0 0 0 0 0 0 0 0 0 0 0 0 0 0 0 0 0 0 0 0 0 0 0 0 0 0 0
0 0 0 0 0 0 0 0 0 0 0 0 0 0 0 0 0 0 0 0 0 0 0 0 0 0 0 0 0 0 0 0 0 0 0 0 0 0
0 0 0 0 0 0 0 0 0 0 0 0 0 0 0 0 0 0 0 0 0 0 0 0 0 0 0 0 0 0 0 0 0 0 0 0 0 0
0 0 0 0 0 0 0 0 0 0 0 0 0 0 0 0 0 0 0 0 0 0 0 0 0 0 0 0 0 0 0 0 0 0 0 0 0 0
0 0 0 0 0 0 0 0 0 0 0 0 0 0 0 0 0 0 0 0 0 0 0 0 0 0 0 0 0 0 0 0 0 0 0 0 0 0
0 0 0 0 0 0 0 0 0 0 0 0 0 0 0 0 0 0 0 0 0 0 0 0 0 0 0 0 0 0 0 0 0 0 0 0 0 0
0 0 0 0 0 0 0 0 0 0 0 0 0 0 0 0 0 0 0 0 0 0 0 0 0 0 0 0 0 0 0 0 0 0 0 0 0 0
0 0 0 0 0 0 0 0 0 0 0 0 0 0 0 0 0 0 0 0 0 0 0 0 0 0 0 0 0 0 0 0 0 0 0 0 0 0
0 0 0 0 0 0 0 0 0 0 0 0 0 0 0 0 0 0 0 0 0 0 0 0 0 0 0 0 0 0 0 0 0 0 0 0 0 0
0 0 0 0 0 0 0 0 0 0 0 0 0 0 0 0 0 0 0 0 0 0 0 0 0 0 0 0 0 0 0 0 0 0 0 0 0 -0
0 0 0 0 0 0 0 0 0 0 0 0 0 0 0 0 0 0 0 0 0 0 0 0 0 0 0 0 0 0 0 0 0 0 0 0 -0 -0
0 0 0 0 0 0 0 0 0 0 0 0 0 0 0 0 0 0 0 0 0 0 0 0 0 0 0 0 0 0 0 0 0 0 0 0 0 -0
0 0 0 0 0 0 0 0 0 0 0 0 0 0 0 0 0 0 0 0 0 0 0 0 0 0 0 0 0 0 0 0 0 0 0 0 -0 -0
0 0 0 0 0 0 0 0 0 0 0 0 0 0 0 0 0 0 0 0 0 0 0 0 0 0 0 0 0 0 0 0 0 0 0 -0 0 -0
0 0 0 0 0 0 0 0 0 0 0 0 0 0 0 0 0 0 0 0 0 0 0 0 0 0 0 0 0 0 0 0 0 0 0 0 0 -0
0 0 0 0 0 0 0 0 0 0 0 0 0 0 0 0 0 0 0 0 0 0 0 0 0 0 0 0 0 0 0 0 0 0 0 0 0 -0
0 0 0 0 0 0 0 0 0 0 0 0 0 0 0 0 0 0 0 0 0 0 0 0 0 0 0 0 0 0 0 0 0 0 0 0 0 0
0 0 0 0 0 0 0 0 0 0 0 0 0 0 0 0 0 0 0 0 0 0 0 0 0 0 0 0 0 0 0 0 0 0 0 0 0 0
0 0 0 0 0 0 0 0 0 0 0 0 0 0 0 0 0 0 0 0 0 0 0 0 0 0 0 0 0 0 0 0 0 0 0 -0 -0 -0
Wind_Speed_500mb
54 55 51 46 48 41 35 32 41 60 64 63 53 46 50 46 43 47 52 54 55 52 54 57 67 75 75 65 61 59 55 50 50 50 50 50 51 53
53 46 44 48 49 47 38 41 40 53 62 60 57 53 45 57 55 51 53 52 54 57 66 73 73 74 67 58 53 56 56 52 50 49 47 44 46 49
51 52 47 44 40 48 45 42 50 58 66 69 68 62 62 60 58 61 64 64 66 70 72 70 71 66 60 51 54 56 56 52 50 50 47 42 42 44
54 50 45 40 49 38 36 38 46 47 60 76 76 71 71 69 68 67 73 76 77 76 75 70 63 65 58 52 60 65 56 58 46 50 49 52 48 46
48 47 44 52 32 32 38 45 51 55 61 70 79 77 77 71 76 75 75 79 76 75 70 61 59 62 56 61 65 55 60 56 50 51 51 55 53 55
40 45 50 51 36 36 52 52 51 55 62 70 77 82 79 76 72 78 80 82 81 76 68 58 60 55 62 68 60 59 65 49 56 54 53 54 55 55
36 44 52 31 36 50 58 50 48 52 59 68 79 85 91 91 89 86 89 86 80 70 66 64 63 63 67 64 61 67 45 51 54 58 56 60 57 54
41 37 37 45 50 38 34 36 43 53 63 68 75 75 82 83 88 90 91 83 77 76 68 68 63 66 67 58 58 38 43 54 64 67 68 57 53 51
21 28 38 46 39 45 50 54 57 59 64 70 76 80 77 83 80 80 85 85 77 79 74 64 64 71 59 57 40 35 49 55 61 62 54 48 51 57
27 30 37 41 45 54 63 69 74 78 82 83 84 86 85 80 80 78 81 85 83 79 70 77 68 66 56 49 35 43 53 58 57 47 52 54 59 60
32 35 40 45 51 59 66 73 79 81 78 78 79 82 87 93 94 82 79 74 75 84 72 71 69 65 56 50 45 52 57 53 46 57 50 48 45 47
34 37 39 44 49 51 57 63 72 74 75 80 78 72 68 69 70 68 81 70 72 63 69 57 60 52 47 50 44 34 46 54 46 43 39 37 39 46
37 39 43 47 50 52 48 48 52 61 68 65 65 63 61 68 70 58 47 62 71 71 71 59 45 38 41 47 48 51 54 41 39 38 38 33 38 46
40 45 45 48 47 45 41 43 52 61 60 59 61 61 61 66 68 64 52 53 59 55 59 59 43 41 41 42 51 54 38 28 29 23 28 34 42 40
40 43 44 41 38 40 43 53 54 54 55 59 60 66 71 67 65 54 54 48 48 56 47 39 35 39 40 46 50 41 37 32 16 32 32 41 42 35
38 38 37 36 39 43 49 50 51 51 53 56 62 65 61 53 59 49 53 47 53 58 50 42 33 38 42 42 34 35 30 33 36 34 38 43 27 28
36 35 35 38 45 48 51 53 54 55 56 53 59 65 59 55 51 42 49 52 59 59 40 32 35 37 33 30 32 32 31 34 36 33 41 28 18 20
33 34 34 38 43 48 51 55 55 55 54 55 56 61 59 55 47 41 31 33 29 25 23 24 28 30 29 31 30 32 30 35 36 34 25 26 17 18
31 31 34 38 44 47 49 52 55 55 54 54 51 56 56 52 48 32 45 41 25 23 20 22 26 28 30 34 26 27 29 35 27 16 18 20 18 11
31 33 36 41 46 47 49 51 52 51 53 53 50 50 52 53 50 36 43 40 25 18 20 24 31 31 30 30 28 29 27 25 16 12 18 11 8 7
34 36 39 44 45 47 49 49 49 49 51 50 49 47 50 50 47 38 25 20 20 23 27 26 25 22 26 29 30 32 30 21 15 10 13 13 3 12
37 40 45 46 45 50 51 48 49 49 47 48 47 47 46 46 46 42 19 26 22 26 26 26 27 24 24 26 29 21 13 18 26 15 8 9 9 8
41 47 47 46 49 47 46 47 47 46 44 46 45 43 45 48 42 40 24 9 30 26 28 35 32 23 24 23 19 13 12 11 10 11 11 5 5 7
Wind_Direction_500mb
246 243 241 246 244 244 237 253 271 280 280 279 280 269 268 270 270 268 267 267 272 277 288 293 302 308 308 306 310 311 314 307 311 307 299 294 292 290
251 245 240 234 236 238 259 275 258 267 277 277 280 280 266 266 275 279 278 273 276 284 289 293 299 304 307 305 305 307 316 312 313 310 305 293 290 289
247 248 233 235 231 259 287 270 259 263 276 278 278 279 275 272 271 273 276 275 275 278 282 288 293 300 300 300 296 305 309 310 311 312 309 296 290 291
253 230 241 231 261 290 288 273 271 270 273 277 280 276 274 275 276 273 271 274 276 277 280 282 287 290 292 288 298 300 299 306 301 303 301 299 296 290
231 250 241 270 273 292 292 284 278 275 275 277 278 279 278 278 279 276 270 270 272 274 273 275 277 281 283 293 296 289 293 298 298 296 292 292 291 297
252 240 258 283 265 285 303 286 281 282 278 278 280 282 285 286 283 279 274 267 268 271 266 267 269 272 282 296 290 286 295 293 297 291 291 290 292 298
248 243 277 281 295 295 298 290 286 289 288 286 285 286 286 287 286 287 281 279 271 262 261 258 258 277 287 295 290 285 286 290 290 294 296 293 291 293
243 271 272 292 300 294 290 288 294 295 291 290 293 295 293 292 292 290 285 278 263 256 255 259 268 286 289 295 292 280 282 289 292 299 300 291 285 288
272 273 280 285 290 286 285 285 281 277 277 285 289 290 296 293 296 293 285 278 267 257 253 255 276 278 283 290 282 280 279 286 290 296 294 298 284 284
263 266 263 274 282 284 285 288 290 288 286 286 287 287 286 286 286 288 290 287 278 263 243 257 270 271 279 284 273 270 280 286 294 293 296 293 290 288
262 269 277 281 283 289 294 294 293 296 298 296 296 294 288 282 276 281 284 280 267 255 254 252 261 272 279 278 271 277 281 284 283 291 296 294 293 290
274 282 285 290 296 302 302 304 306 310 310 308 308 311 316 311 299 281 274 273 261 261 258 243 258 272 278 270 272 276 294 298 293 298 295 297 300 300
292 296 302 307 307 309 311 310 311 309 308 309 311 313 313 318 316 296 290 284 253 268 268 253 268 260 260 263 279 292 306 305 307 297 297 300 303 310
296 302 307 307 312 313 309 310 313 312 308 306 306 308 314 320 315 314 291 292 275 273 269 267 264 259 253 271 283 300 310 321 316 311 318 311 314 307
296 301 305 312 312 309 315 317 318 318 317 316 315 308 302 298 309 302 296 286 282 268 255 241 237 235 253 270 287 302 313 322 315 322 317 322 318 323
297 303 311 313 313 314 315 320 327 327 325 321 322 321 313 305 304 297 297 276 268 267 243 234 234 238 253 274 283 298 312 309 320 305 313 318 319 333
308 310 313 313 316 318 320 322 327 328 330 326 328 329 325 327 310 298 287 279 257 246 227 241 245 254 258 266 278 291 308 309 318 305 312 304 321 325
304 310 313 309 311 317 320 321 325 328 328 328 329 333 331 331 329 301 307 247 227 237 236 242 242 241 248 256 267 288 296 301 307 305 306 304 294 300
301 301 299 303 308 313 316 319 322 326 325 328 330 334 334 331 330 308 291 270 242 244 248 244 239 230 247 254 279 281 288 307 295 306 337 323 292 271
297 297 302 306 307 310 313 316 317 320 324 328 327 331 336 336 333 306 280 229 235 246 253 246 239 240 240 259 280 286 298 303 281 322 355 351 84 17
298 300 303 304 303 306 310 311 314 319 322 326 326 328 334 337 335 333 263 232 238 247 249 250 254 242 248 253 260 280 295 275 272 295 357 2 349 355
293 296 299 301 301 306 306 311 314 316 321 325 327 329 330 335 336 336 338 252 252 254 263 264 225 229 233 252 277 270 268 288 257 259 301 343 351 344
294 297 300 300 304 304 309 313 313 313 321 323 325 327 331 331 332 331 348 320 253 256 261 253 216 217 242 266 277 246 289 281 253 239 224 322 323 4
Wind_Speed_850mb
54 55 51 46 48 41 35 32 41 60 64 63 53 46 50 46 43 47 52 54 55 52 54 57 67 75 75 65 61 59 55 50 50 50 50 50 51 53
53 46 44 48 49 47 38 41 40 53 62 60 57 53 45 57 55 51 53 52 54 57 66 73 73 74 67 58 53 56 56 52 50 49 47 44 46 49
51 52 47 44 40 48 45 42 50 58 66 69 68 62 62 60 58 61 64 64 66 70 72 70 71 66 60 51 54 56 56 52 50 50 47 42 42 44
54 50 45 40 49 38 36 38 46 47 60 76 76 71 71 69 68 67 73 76 77 76 75 70 63 65 58 52 60 65 56 58 46 50 49 52 48 46
48 47 44 52 32 32 38 45 51 55 61 70 79 77 77 71 76 75 75 79 76 75 70 61 59 62 56 61 65 55 60 56 50 51 51 55 53 55
40 45 50 51 36 36 52 52 51 55 62 70 77 82 79 76 72 78 80 82 81 76 68 58 60 55 62 68 60 59 65 49 56 54 53 54 55 55
36 44 52 31 36 50 58 50 48 52 59 68 79 85 91 91 89 86 89 86 80 70 66 64 63 63 67 64 61 67 45 51 54 58 56 60 57 54
41 37 37 45 50 38 34 36 43 53 63 68 75 75 82 83 88 90 91 83 77 76 68 68 63 66 67 58 58 38 43 54 64 67 68 57 53 51
21 28 38 46 39 45 50 54 57 59 64 70 76 80 77 83 80 80 85 85 77 79 74 64 64 71 59 57 40 35 49 55 61 62 54 48 51 57
27 30 37 41 45 54 63 69 74 78 82 83 84 86 85 80 80 78 81 85 83 79 70 77 68 66 56 49 35 43 53 58 57 47 52 54 59 60
32 35 40 45 51 59 66 73 79 81 78 78 79 82 87 93 94 82 79 74 75 84 72 71 69 65 56 50 45 52 57 53 46 57 50 48 45 47
34 37 39 44 49 51 57 63 72 74 75 80 78 72 68 69 70 68 81 70 72 63 69 57 60 52 47 50 44 34 46 54 46 43 39 37 39 46
37 39 43 47 50 52 48 48 52 61 68 65 65 63 61 68 70 58 47 62 71 71 71 59 45 38 41 47 48 51 54 41 39 38 38 33 38 46
40 45 45 48 47 45 41 43 52 61 60 59 61 61 61 66 68 64 52 53 59 55 59 59 43 41 41 42 51 54 38 28 29 23 28 34 42 40
40 43 44 41 38 40 43 53 54 54 55 59 60 66 71 67 65 54 54 48 48 56 47 39 35 39 40 46 50 41 37 32 16 32 32 41 42 35
38 38 37 36 39 43 49 50 51 51 53 56 62 65 61 53 59 49 53 47 53 58 50 42 33 38 42 42 34 35 30 33 36 34 38 43 27 28
36 35 35 38 45 48 51 53 54 55 56 53 59 65 59 55 51 42 49 52 59 59 40 32 35 37 33 30 32 32 31 34 36 33 41 28 18 20
33 34 34 38 43 48 51 55 55 55 54 55 56 61 59 55 47 41 31 33 29 25 23 24 28 30 29 31 30 32 30 35 36 34 25 26 17 18
31 31 34 38 44 47 49 52 55 55 54 54 51 56 56 52 48 32 45 41 25 23 20 22 26 28 30 34 26 27 29 35 27 16 18 20 18 11
31 33 36 41 46 47 49 51 52 51 53 53 50 50 52 53 50 36 43 40 25 18 20 24 31 31 30 30 28 29 27 25 16 12 18 11 8 7
34 36 39 44 45 47 49 49 49 49 51 50 49 47 50 50 47 38 25 20 20 23 27 26 25 22 26 29 30 32 30 21 15 10 13 13 3 12
37 40 45 46 45 50 51 48 49 49 47 48 47 47 46 46 46 42 19 26 22 26 26 26 27 24 24 26 29 21 13 18 26 15 8 9 9 8
41 47 47 46 49 47 46 47 47 46 44 46 45 43 45 48 42 40 24 9 30 26 28 35 32 23 24 23 19 13 12 11 10 11 11 5 5 7
Wind_Direction_850mb
246 243 241 246 244 244 237 253 271 280 280 279 280 269 268 270 270 268 267 267 272 277 288 293 302 308 308 306 310 311 314 307 311 307 299 294 292 290
251 245 240 234 236 238 259 275 258 267 277 277 280 280 266 266 275 279 278 273 276 284 289 293 299 304 307 305 305 307 316 312 313 310 305 293 290 289
247 248 233 235 231 259 287 270 259 263 276 278 278 279 275 272 271 273 276 275 275 278 282 288 293 300 300 300 296 305 309 310 311 312 309 296 290 291
253 230 241 231 261 290 288 273 271 270 273 277 280 276 274 275 276 273 271 274 276 277 280 282 287 290 292 288 298 300 299 306 301 303 301 299 296 290
231 250 241 270 273 292 292 284 278 275 275 277 278 279 278 278 279 276 270 270 272 274 273 275 277 281 283 293 296 289 293 298 298 296 292 292 291 297
252 240 258 283 265 285 303 286 281 282 278 278 280 282 285 286 283 279 274 267 268 271 266 267 269 272 282 296 290 286 295 293 297 291 291 290 292 298
248 243 277 281 295 295 298 290 286 289 288 286 285 286 286 287 286 287 281 279 271 262 261 258 258 277 287 295 290 285 286 290 290 294 296 293 291 293
243 271 272 292 300 294 290 288 294 295 291 290 293 295 293 292 292 290 285 278 263 256 255 259 268 286 289 295 292 280 282 289 292 299 300 291 285 288
272 273 280 285 290 286 285 285 281 277 277 285 289 290 296 293 296 293 285 278 267 257 253 255 276 278 283 290 282 280 279 286 290 296 294 298 284 284
263 266 263 274 282 284 285 288 290 288 286 286 287 287 286 286 286 288 290 287 278 263 243 257 270 271 279 284 273 270 280 286 294 293 296 293 290 288
262 269 277 281 283 289 294 294 293 296 298 296 296 294 288 282 276 281 284 280 267 255 254 252 261 272 279 278 271 277 281 284 283 291 296 294 293 290
274 282 285 290 296 302 302 304 306 310 310 308 308 311 316 311 299 281 274 273 261 261 258 243 258 272 278 270 272 276 294 298 293 298 295 297 300 300
292 296 302 307 307 309 311 310 311 309 308 309 311 313 313 318 316 296 290 284 253 268 268 253 268 260 260 263 279 292 306 305 307 297 297 300 303 310
296 302 307 307 312 313 309 310 313 312 308 306 306 308 314 320 315 314 291 292 275 273 269 267 264 259 253 271 283 300 310 321 316 311 318 311 314 307
296 301 305 312 312 309 315 317 318 318 317 316 315 308 302 298 309 302 296 286 282 268 255 241 237 235 253 270 287 302 313 322 315 322 317 322 318 323
297 303 311 313 313 314 315 320 327 327 325 321 322 321 313 305 304 297 297 276 268 267 243 234 234 238 253 274 283 298 312 309 320 305 313 318 319 333
308 310 313 313 316 318 320 322 327 328 330 326 328 329 325 327 310 298 287 279 257 246 227 241 245 254 258 266 278 291 308 309 318 305 312 304 321 325
304 310 313 309 311 317 320 321 325 328 328 328 329 333 331 331 329 301 307 247 227 237 236 242 242 241 248 256 267 288 296 301 307 305 306 304 294 300
301 301 299 303 308 313 316 319 322 326 325 328 330 334 334 331 330 308 291 270 242 244 248 244 239 230 247 254 279 281 288 307 295 306 337 323 292 271
297 297 302 306 307 310 313 316 317 320 324 328 327 331 336 336 333 306 280 229 235 246 253 246 239 240 240 259 280 286 298 303 281 322 355 351 84 17
298 300 303 304 303 306 310 311 314 319 322 326 326 328 334 337 335 333 263 232 238 247 249 250 254 242 248 253 260 280 295 275 272 295 357 2 349 355
293 296 299 301 301 306 306 311 314 316 321 325 327 329 330 335 336 336 338 252 252 254 263 264 225 229 233 252 277 270 268 288 257 259 301 343 351 344
294 297 300 300 304 304 309 313 313 313 321 323 325 327 331 331 332 331 348 320 253 256 261 253 216 217 242 266 277 246 289 281 253 239 224 322 323 4